Time,TemperatureF,DewpointF,PressureIn,WindDirection,WindDirectionDegrees,WindSpeedMPH,WindSpeedGustMPH,Humidity,HourlyPrecipIn,Conditions,Clouds,dailyrainin,SolarRadiationWatts/m^2,SoftwareType,DateUTC
2013-01-30 00:15:00,39.2,37.0,30.02,WSW,242,0.0,2.0,90,0.00,,,0.12,0,weatherlink.com 1.10,2013-01-29 23:15:00,
2013-01-30 00:29:00,39.1,37.0,30.01,WSW,242,0.0,0.0,91,0.00,,,0.12,0,weatherlink.com 1.10,2013-01-29 23:29:00,
2013-01-30 00:44:00,39.2,37.0,30.00,North,360,0.0,1.0,91,0.00,,,0.00,0,weatherlink.com 1.10,2013-01-29 23:44:00,
2013-01-30 00:59:00,39.2,37.0,30.01,WSW,244,0.0,1.0,91,0.00,,,0.00,0,weatherlink.com 1.10,2013-01-29 23:59:00,
2013-01-30 01:15:00,39.3,37.0,30.00,WSW,244,0.0,2.0,92,0.00,,,0.00,0,weatherlink.com 1.10,2013-01-30 00:15:00,
2013-01-30 01:30:00,39.4,37.0,30.00,WSW,244,0.0,0.0,92,0.00,,,0.00,0,weatherlink.com 1.10,2013-01-30 00:30:00,
2013-01-30 01:45:00,39.5,37.0,30.00,WSW,244,0.0,0.0,92,0.01,,,0.01,0,weatherlink.com 1.10,2013-01-30 00:45:00,
2013-01-30 02:00:00,39.6,38.0,30.00,WSW,242,0.0,0.0,92,0.01,,,0.01,0,weatherlink.com 1.10,2013-01-30 01:00:00,
2013-01-30 02:15:00,40.0,38.0,30.00,WSW,242,0.0,0.0,93,0.01,,,0.01,0,weatherlink.com 1.10,2013-01-30 01:15:00,
2013-01-30 02:30:00,40.8,39.0,29.99,North,360,0.0,1.0,93,0.01,,,0.01,0,weatherlink.com 1.10,2013-01-30 01:30:00,
2013-01-30 02:45:00,41.2,39.0,29.99,SW,228,0.0,3.0,93,0.00,,,0.01,0,weatherlink.com 1.10,2013-01-30 01:45:00,
2013-01-30 03:00:00,41.5,40.0,30.00,North,360,0.0,2.0,93,0.00,,,0.01,0,weatherlink.com 1.10,2013-01-30 02:00:00,
2013-01-30 03:15:00,41.5,40.0,30.00,North,360,0.0,2.0,93,0.00,,,0.01,0,weatherlink.com 1.10,2013-01-30 02:15:00,
2013-01-30 03:30:00,41.4,39.0,30.00,West,273,0.0,0.0,92,0.00,,,0.01,0,weatherlink.com 1.10,2013-01-30 02:30:00,
2013-01-30 03:45:00,41.4,39.0,29.99,West,269,0.0,0.0,92,0.00,,,0.01,0,weatherlink.com 1.10,2013-01-30 02:45:00,
2013-01-30 04:00:00,41.4,39.0,29.99,West,271,0.0,2.0,92,0.00,,,0.01,0,weatherlink.com 1.10,2013-01-30 03:00:00,
2013-01-30 04:15:00,41.7,40.0,30.00,West,273,0.0,2.0,92,0.00,,,0.01,0,weatherlink.com 1.10,2013-01-30 03:15:00,
2013-01-30 04:30:00,41.2,39.0,30.00,West,270,1.0,1.0,92,0.00,,,0.01,0,weatherlink.com 1.10,2013-01-30 03:30:00,
2013-01-30 04:45:00,40.8,39.0,29.99,West,269,0.0,0.0,92,0.00,,,0.01,0,weatherlink.com 1.10,2013-01-30 03:45:00,
2013-01-30 05:00:00,40.6,39.0,30.00,North,360,0.0,0.0,92,0.00,,,0.01,0,weatherlink.com 1.10,2013-01-30 04:00:00,
2013-01-30 05:15:00,40.4,38.0,30.00,West,274,0.0,0.0,91,0.00,,,0.01,0,weatherlink.com 1.10,2013-01-30 04:15:00,
2013-01-30 05:30:00,40.3,38.0,30.00,West,269,0.0,0.0,92,0.00,,,0.01,0,weatherlink.com 1.10,2013-01-30 04:30:00,
2013-01-30 05:45:00,40.2,38.0,30.00,West,270,0.0,0.0,92,0.00,,,0.01,0,weatherlink.com 1.10,2013-01-30 04:45:00,
2013-01-30 06:15:00,40.1,38.0,30.01,West,271,0.0,0.0,92,0.00,,,0.01,0,weatherlink.com 1.10,2013-01-30 05:15:00,
2013-01-30 06:30:00,40.1,38.0,30.01,North,360,0.0,0.0,92,0.01,,,0.02,0,weatherlink.com 1.10,2013-01-30 05:30:00,
2013-01-30 06:45:00,40.1,38.0,30.01,West,266,0.0,0.0,92,0.01,,,0.02,0,weatherlink.com 1.10,2013-01-30 05:45:00,
2013-01-30 07:00:00,40.1,38.0,30.02,West,271,0.0,0.0,92,0.02,,,0.02,0,weatherlink.com 1.10,2013-01-30 06:00:00,
2013-01-30 07:15:00,40.2,38.0,30.02,West,273,0.0,0.0,92,0.02,,,0.03,0,weatherlink.com 1.10,2013-01-30 06:15:00,
2013-01-30 07:30:00,40.3,38.0,30.02,West,271,0.0,0.0,92,0.02,,,0.04,5,weatherlink.com 1.10,2013-01-30 06:30:00,
2013-01-30 07:45:00,40.4,38.0,30.02,North,360,0.0,0.0,92,0.02,,,0.04,7,weatherlink.com 1.10,2013-01-30 06:45:00,
2013-01-30 08:01:00,40.6,39.0,30.01,West,272,0.0,0.0,93,0.02,,,0.04,18,weatherlink.com 1.10,2013-01-30 07:01:00,
2013-01-30 08:15:00,40.7,39.0,30.01,North,360,0.0,2.0,93,0.02,,,0.05,12,weatherlink.com 1.10,2013-01-30 07:15:00,
2013-01-30 08:30:00,40.7,39.0,30.01,North,360,0.0,0.0,93,0.01,,,0.05,14,weatherlink.com 1.10,2013-01-30 07:30:00,
2013-01-30 08:46:00,40.7,39.0,30.01,West,271,0.0,0.0,93,0.02,,,0.06,18,weatherlink.com 1.10,2013-01-30 07:46:00,
2013-01-30 09:15:00,40.9,39.0,30.01,SSW,194,0.0,6.0,93,0.01,,,0.06,47,weatherlink.com 1.10,2013-01-30 08:15:00,
2013-01-30 09:45:00,42.2,41.0,30.01,WSW,248,0.0,3.0,94,0.01,,,0.06,72,weatherlink.com 1.10,2013-01-30 08:45:00,
2013-01-30 10:00:00,42.6,41.0,30.01,WSW,248,0.0,1.0,94,0.01,,,0.06,135,weatherlink.com 1.10,2013-01-30 09:00:00,
2013-01-30 10:15:00,43.4,42.0,30.01,WNW,288,0.0,4.0,94,0.02,,,0.07,113,weatherlink.com 1.10,2013-01-30 09:15:00,
2013-01-30 10:30:00,43.6,42.0,30.01,WNW,291,0.0,3.0,94,0.02,,,0.07,70,weatherlink.com 1.10,2013-01-30 09:30:00,
2013-01-30 10:45:00,43.3,42.0,30.01,WNW,292,0.0,0.0,93,0.01,,,0.07,67,weatherlink.com 1.10,2013-01-30 09:45:00,
2013-01-30 11:00:00,43.1,41.0,30.00,WNW,289,0.0,0.0,93,0.01,,,0.07,84,weatherlink.com 1.10,2013-01-30 10:00:00,
2013-01-30 11:16:00,43.3,42.0,30.00,WNW,292,0.0,0.0,94,0.01,,,0.08,84,weatherlink.com 1.10,2013-01-30 10:16:00,
2013-01-30 11:31:00,43.7,42.0,29.98,WNW,291,0.0,2.0,93,0.01,,,0.08,118,weatherlink.com 1.10,2013-01-30 10:31:00,
2013-01-30 12:01:00,44.7,43.0,29.98,WNW,292,0.0,0.0,93,0.01,,,0.08,160,weatherlink.com 1.10,2013-01-30 11:01:00,
2013-01-30 12:16:00,44.8,43.0,29.97,SSW,213,3.0,5.0,93,0.01,,,0.09,206,weatherlink.com 1.10,2013-01-30 11:16:00,
2013-01-30 12:31:00,45.0,43.0,29.96,North,360,2.0,4.0,91,0.01,,,0.09,165,weatherlink.com 1.10,2013-01-30 11:31:00,
2013-01-30 12:46:00,46.3,44.0,29.95,SW,222,0.0,3.0,90,0.01,,,0.09,202,weatherlink.com 1.10,2013-01-30 11:46:00,
2013-01-30 13:01:00,47.5,45.0,29.96,North,360,3.0,4.0,89,0.01,,,0.09,338,weatherlink.com 1.10,2013-01-30 12:01:00,
2013-01-30 13:16:00,46.6,43.0,29.96,South,181,2.0,3.0,86,0.00,,,0.09,192,weatherlink.com 1.10,2013-01-30 12:16:00,
2013-01-30 13:31:00,45.9,43.0,29.94,South,180,0.0,3.0,88,0.00,,,0.09,167,weatherlink.com 1.10,2013-01-30 12:31:00,
2013-01-30 13:46:00,47.3,43.0,29.94,South,178,0.0,3.0,86,0.00,,,0.09,195,weatherlink.com 1.10,2013-01-30 12:46:00,
2013-01-30 14:16:00,46.8,43.0,29.94,ESE,110,0.0,3.0,87,0.00,,,0.09,128,weatherlink.com 1.10,2013-01-30 13:16:00,
2013-01-30 15:01:00,45.0,43.0,29.93,West,277,1.0,3.0,91,0.00,,,0.09,93,weatherlink.com 1.10,2013-01-30 14:01:00,
2013-01-30 15:16:00,45.4,43.0,29.93,West,273,1.0,2.0,91,0.00,,,0.09,47,weatherlink.com 1.10,2013-01-30 14:16:00,
2013-01-30 15:31:00,45.3,43.0,29.93,North,360,1.0,2.0,91,0.00,,,0.09,35,weatherlink.com 1.10,2013-01-30 14:31:00,
2013-01-30 15:46:00,45.2,43.0,29.93,West,276,0.0,2.0,91,0.00,,,0.09,25,weatherlink.com 1.10,2013-01-30 14:46:00,
2013-01-30 16:01:00,45.3,43.0,29.92,West,277,0.0,1.0,91,0.01,,,0.09,16,weatherlink.com 1.10,2013-01-30 15:01:00,
2013-01-30 16:32:00,45.3,43.0,29.92,North,360,0.0,0.0,92,0.03,,,0.12,0,weatherlink.com 1.10,2013-01-30 15:32:00,
2013-01-30 16:46:00,45.3,43.0,29.91,North,360,0.0,1.0,92,0.03,,,0.12,0,weatherlink.com 1.10,2013-01-30 15:46:00,
2013-01-30 17:01:00,45.0,43.0,29.92,West,277,0.0,2.0,92,0.02,,,0.12,0,weatherlink.com 1.10,2013-01-30 16:01:00,
2013-01-30 17:16:00,44.7,43.0,29.91,North,360,1.0,1.0,92,0.02,,,0.13,0,weatherlink.com 1.10,2013-01-30 16:16:00,
2013-01-30 17:31:00,45.2,43.0,29.91,SW,229,0.0,3.0,93,0.01,,,0.13,0,weatherlink.com 1.10,2013-01-30 16:31:00,
2013-01-30 17:46:00,46.3,44.0,29.91,WSW,249,2.0,4.0,93,0.01,,,0.13,0,weatherlink.com 1.10,2013-01-30 16:46:00,
2013-01-30 18:01:00,46.9,45.0,29.90,SW,233,0.0,5.0,91,0.01,,,0.13,0,weatherlink.com 1.10,2013-01-30 17:01:00,
2013-01-30 18:16:00,47.3,44.0,29.90,SW,236,0.0,3.0,89,0.00,,,0.13,0,weatherlink.com 1.10,2013-01-30 17:16:00,
2013-01-30 18:31:00,47.1,44.0,29.90,WSW,238,2.0,3.0,88,0.00,,,0.13,0,weatherlink.com 1.10,2013-01-30 17:31:00,
2013-01-30 19:01:00,46.7,43.0,29.90,WSW,240,1.0,3.0,88,0.01,,,0.13,0,weatherlink.com 1.10,2013-01-30 18:01:00,
2013-01-30 19:16:00,46.6,44.0,29.89,WSW,238,0.0,3.0,89,0.02,,,0.15,0,weatherlink.com 1.10,2013-01-30 18:16:00,
2013-01-30 19:31:00,46.2,43.0,29.88,West,265,0.0,3.0,89,0.02,,,0.15,0,weatherlink.com 1.10,2013-01-30 18:31:00,
2013-01-30 19:46:00,45.6,43.0,29.87,West,265,0.0,0.0,90,0.02,,,0.16,0,weatherlink.com 1.10,2013-01-30 18:46:00,
2013-01-30 20:16:00,44.9,43.0,29.86,West,265,1.0,3.0,91,0.01,,,0.16,0,weatherlink.com 1.10,2013-01-30 19:16:00,
2013-01-30 20:31:00,44.6,42.0,29.85,West,267,0.0,1.0,91,0.01,,,0.16,0,weatherlink.com 1.10,2013-01-30 19:31:00,
2013-01-30 21:01:00,44.8,43.0,29.85,North,360,0.0,2.0,92,0.01,,,0.17,0,weatherlink.com 1.10,2013-01-30 20:01:00,
2013-01-30 21:16:00,45.7,44.0,29.84,SW,236,2.0,2.0,92,0.01,,,0.17,0,weatherlink.com 1.10,2013-01-30 20:16:00,
2013-01-30 21:31:00,45.2,43.0,29.84,WSW,250,0.0,2.0,91,0.01,,,0.17,0,weatherlink.com 1.10,2013-01-30 20:31:00,
2013-01-30 21:46:00,44.6,42.0,29.84,North,355,0.0,6.0,91,0.00,,,0.17,0,weatherlink.com 1.10,2013-01-30 20:46:00,
2013-01-30 22:01:00,44.2,42.0,29.84,North,360,0.0,2.0,91,0.00,,,0.17,0,weatherlink.com 1.10,2013-01-30 21:01:00,
2013-01-30 22:16:00,43.9,42.0,29.83,North,355,0.0,4.0,91,0.00,,,0.17,0,weatherlink.com 1.10,2013-01-30 21:16:00,
2013-01-30 22:31:00,44.7,43.0,29.82,WSW,242,0.0,3.0,92,0.00,,,0.17,0,weatherlink.com 1.10,2013-01-30 21:31:00,
2013-01-30 22:46:00,46.0,42.0,29.83,North,360,0.0,2.0,86,0.00,,,0.17,0,weatherlink.com 1.10,2013-01-30 21:46:00,
2013-01-30 23:01:00,47.5,43.0,29.83,WSW,252,0.0,3.0,83,0.00,,,0.17,0,weatherlink.com 1.10,2013-01-30 22:01:00,
2013-01-30 23:17:00,47.7,43.0,29.83,WSW,252,0.0,1.0,83,0.00,,,0.17,0,weatherlink.com 1.10,2013-01-30 22:17:00,
2013-01-30 23:31:00,46.2,42.0,29.83,WSW,254,0.0,2.0,84,0.00,,,0.17,0,weatherlink.com 1.10,2013-01-30 22:31:00,
2013-01-30 23:46:00,45.1,41.0,29.82,WSW,252,0.0,2.0,86,0.01,,,0.17,0,weatherlink.com 1.10,2013-01-30 22:46:00,